Find Starlink 31115

NORAD ID: 58729 Int'l Des: 2024-005 Owner: SPXS Country: US Constellation: starlink operational
LEOCIRCULAR

实时位置

正在加载3D地球...

关于 Starlink 31115

正在加载描述...

即将过境

Passes for default location (London). Set your location on the main map for personalized predictions.

高度历史

Loading altitude history...

两行轨道根数

1 58729U 24005B 26122.46837949 -.00000756 00000-0 -17947-4 0 9997
2 58729 42.9993 276.4372 0001162 283.2035 76.8687 15.27568308128652
Epoch: May 2, 2026 • Age: 6 hours

当前状态

高度 486.3 km
速度 7.62 km/s
星下点 -17.70°S, 133.39°E
发射日期 Jan 7, 2024
运行时间 2.3 years
类型 internet

技术详情

分类 Payload
质量 730.00 kg
干质量 700.00 kg
总质量 730.00 kg
长度 0.30 m
直径 4.10 m
跨度 29.00 m
形状 Box + pan
制造商 SPXS
平台类型 Starlink V2M
阶段状态 In Orbit
所有者/国家 SPXS/US

Most Searched